Regional Weather Roundup
Issued by NWS Kansas City/Pleasant Hill, MO

Home | Current Version | Previous Version | Graphics & Text | Print | Product List | Glossary Off
Versions: 1 2 3 4 5 6 7 8 9 10 11 12 13 14 15 16 17 18 19 20 21 22 23 24 25 26 27 28 29 30 31 32 33 34 35 36 37 38 39 40 41 42 43 44 45 46 47 48 49 50

000
ASUS43 KEAX 061310
RWREAX

WEATHER ROUNDUP FOR EASTERN KANSAS AND NORTHWEST MISSOURI
NATIONAL WEATHER SERVICE KANSAS CITY/PLEASANT HILL MO
800 AM CDT WED MAY 06 2015

KSZ040-057-103>105-MOZ028-029-037-043-061400-
...KANSAS CITY METROPOLITAN AREA...

CITY           SKY/WX    TMP DP  RH WIND       PRES   REMARKS
K.C. INTL      PTSUNNY   67  58  72 S18       29.92F
K.C. DOWNTOWN  PTSUNNY   69  58  67 S15G28    29.92F
LEES SUMMIT    LGT RAIN  65  60  84 S15G24    29.95F
OLATHE - IXD   CLOUDY    65  59  81 S25G33    29.93S
OLATHE - OJC   CLOUDY    65  59  81 S16       29.93S
LAWRENCE       CLOUDY    65  59  81 S17G26    29.91R

$$

MOZ001>008-011>017-020>025-030>033-038>040-044>046-053-054-061400-
...NORTHERN AND CENTRAL MISSOURI...

CITY           SKY/WX    TMP DP  RH WIND       PRES   REMARKS
ST. JOSEPH     CLOUDY    67  58  72 S15       29.90F
MOSBY          CLOUDY    68  59  73 SE10G18   29.94F
HARRISONVILLE  CLOUDY    66  61  82 S14G20    29.99S
WHITEMAN AFB   LGT RAIN  68  58  69 S15G23    29.99S
CLINTON        CLOUDY    70  57  64 S14       30.01S
SEDALIA        PTSUNNY   68  55  63 S12       30.04R
WARSAW         NOT AVBL
MARSHALL       PTSUNNY   70  61  73 SE12G18   30.02F
CHILLICOTHE      N/A     68  56  65 SE12G18   30.00S
MOBERLY        MOSUNNY   68  54  60 SE12      30.07S
KIRKSVILLE     MOSUNNY   68  57  68 S13       30.06S

$$

MOZ041-047>049-056>058-063>065-088>090-097-061400-
...EASTERN AND SOUTHERN MISSOURI...

CITY           SKY/WX    TMP DP  RH WIND       PRES   REMARKS
ST. LOUIS INTL PTSUNNY   72  55  55 S8        30.15R
SPIRIT OF STL  MOSUNNY   69  55  60 S3        30.13R
COLUMBIA       MOSUNNY   67  55  65 SE13      30.07S
JEFFERSON CITY MOSUNNY   66  54  65 SE12      30.07S
MEXICO         SUNNY     64  59  82 SE9       30.09S
HANNIBAL       SUNNY     72  52  49 S7        30.10F
ROLLA          SUNNY     65  53  65 SE13      30.09S
LEBANON        MOSUNNY   70  54  56 S10       30.09S
OSAGE BEACH    MOSUNNY   64  52  63 S7        30.08R
SPRINGFIELD    CLOUDY    66  54  65 SE13      30.06R
NEVADA         LGT RAIN  63  59  88 SE18G26   30.00F
JOPLIN         LGT RAIN  61  59  93 SE14G23   30.01F
WEST PLAINS    SUNNY     62  52  69 SE5       30.13R

$$

IAZ060-094-KSZ022-034>040-054-083-096-NEZ052-066-093-061400-
...KANSAS...SOUTHEAST NEBRASKA AND IOWA...

CITY           SKY/WX    TMP DP  RH WIND       PRES   REMARKS
TOPEKA         PTSUNNY   65  60  84 S16G26    29.89R
MANHATTAN      CLOUDY    63  60  90 S12       29.84R
EMPORIA        CLOUDY    61  58  90 S15       29.87S
CHANUTE        LGT RAIN  63  60  90 S16G23    29.93S
WICHITA        LGT RAIN  61  58  90 S15       29.86S
OMAHA          CLOUDY    63  60  90 SE18      29.86F
LINCOLN        CLOUDY    64  60  87 SE18G26   29.81F
FALLS CITY     CLOUDY    64  59  83 SE15G24   29.86F
LAMONI         PTSUNNY   67  56  67 SE12G18   29.98S
DES MOINES     CLOUDY    67  57  70 SE10      30.00S

$$




USA.gov is the U.S. government's official web portal to all federal, state and local government web resources and services.